Dubuque, IA

3:18 AM CDT on May 25, 2018 (GMT -0500)
Dubuque Regional

Weather History for KDBQ - January, 2014

Change the Weather History Date:

Wednesday, January 8, 2014

  Actual Average Record
Temperature  
Mean Temperature -1 °F 19 °F  
Max Temperature 8 °F 26 °F 56 °F (2003)
Min Temperature -10 °F 11 °F -20 °F (1970)
Degree Days  
Heating Degree Days 66 46  
Month to date heating degree days 512 368  
Since 1 July heating degree days 3637 3178  
Cooling Degree Days 0 0  
Month to date cooling degree days 0 0  
Year to date cooling degree days 0 0  
Moisture  
Dew Point -7 °F    
Average Humidity 75    
Maximum Humidity 87    
Minimum Humidity 63    
Precipitation  
Precipitation 0.00 in 0.03 in 0.95 in (1937)
Month to date precipitation 0.05 0.31  
Year to date precipitation 0.05 0.31  
Snow  
Snow 0.00 in 0.30 in - ()
Month to date snowfall 0.9 2.6  
Since 1 July snowfall 23.2 17.2  
Snow Depth 7.00 in    
Sea Level Pressure  
Sea Level Pressure 30.46 in    
Wind  
Wind Speed 3 mph (NW)    
Max Wind Speed 8 mph    
Max Gust Speed 9 mph    
Visibility 10 miles    
Events      
T = Trace of Precipitation, MM = Missing Value Source: NWS Daily Summary

Daily Weather History Graph

Daily Weather History Graph

Search for Another Location

Airport or City:

Astronomy

Jan. 08, 2014 Rise Set
Actual Time 7:31 AM CST 4:47 PM CST
Civil Twilight 7:00 AM CST 5:19 PM CST
Nautical Twilight 6:25 AM CST 5:54 PM CST
Astronomical Twilight 5:51 AM CST 6:28 PM CST
Moon 11:44 AM CST (1/8) 12:33 AM CST (1/8)
Length of Visible Light 10h 18m
Length of Day
9h 15m
First Quarter, 56% of the Moon is Illuminated
Jan 8
First Quarter
Jan 15
Full
Jan 23
Last Quarter
Jan 30
New
Feb 6
First Quarter

Hourly Weather History & Observations

Time (CST) Temp. Windchill Dew Point Humidity Pressure Visibility Wind Dir Wind Speed Gust Speed Precip Events Conditions
12:53 AM -7.1 °F - -11.0 °F 83% 30.33 in 10.0 mi Calm Calm - N/A   Clear
1:53 AM -2.9 °F -11.2 °F -8.0 °F 79% 30.33 in 10.0 mi NE 3.5 mph - N/A   Clear
2:53 AM -2.9 °F -13.3 °F -8.0 °F 79% 30.35 in 10.0 mi North 4.6 mph - N/A   Clear
3:53 AM -4.0 °F -17.8 °F -8.0 °F 83% 30.37 in 10.0 mi North 6.9 mph - N/A   Clear
4:53 AM -6.0 °F - -9.9 °F 83% 30.39 in 10.0 mi Calm Calm - N/A   Clear
5:53 AM -6.0 °F - -9.9 °F 83% 30.38 in 10.0 mi Calm Calm - N/A   Clear
6:53 AM -7.1 °F - -11.9 °F 79% 30.41 in 10.0 mi Calm Calm - N/A   Clear
7:53 AM -4.0 °F - -9.0 °F 79% 30.43 in 10.0 mi Calm Calm - N/A   Clear
8:53 AM -2.9 °F - -9.0 °F 75% 30.47 in 10.0 mi Calm Calm - N/A   Clear
9:53 AM -2.0 °F -10.1 °F -6.0 °F 83% 30.49 in 10.0 mi SW 3.5 mph - N/A   Clear
10:53 AM 1.9 °F -5.6 °F -4.0 °F 76% 30.48 in 10.0 mi WSW 3.5 mph - N/A   Clear
11:53 AM 3.0 °F -9.3 °F -4.0 °F 73% 30.46 in 10.0 mi SW 6.9 mph - N/A   Clear
12:53 PM 6.1 °F -5.6 °F -2.9 °F 67% 30.45 in 10.0 mi WSW 6.9 mph - N/A   Clear
1:53 PM 6.1 °F -5.6 °F -2.9 °F 67% 30.45 in 10.0 mi WSW 6.9 mph - N/A   Clear
2:53 PM 8.1 °F -2.0 °F -2.0 °F 64% 30.47 in 10.0 mi West 5.8 mph - N/A   Clear
3:53 PM 7.0 °F -4.5 °F -2.9 °F 64% 30.49 in 10.0 mi WNW 6.9 mph - N/A   Clear
4:53 PM 5.0 °F -2.1 °F -5.1 °F 63% 30.50 in 10.0 mi North 3.5 mph - N/A   Clear
5:53 PM 1.9 °F - -6.0 °F 69% 30.51 in 10.0 mi Calm Calm - N/A   Clear
6:53 PM -2.9 °F - -8.0 °F 79% 30.53 in 10.0 mi Calm Calm - N/A   Clear
7:53 PM -2.0 °F - -8.0 °F 76% 30.55 in 10.0 mi Calm Calm - N/A   Clear
8:53 PM -2.9 °F - -8.0 °F 79% 30.55 in 10.0 mi Calm Calm - N/A   Clear
9:53 PM -5.1 °F -13.6 °F -9.9 °F 80% 30.55 in 10.0 mi North 3.5 mph - N/A   Clear
10:53 PM -2.0 °F -12.2 °F -7.1 °F 79% 30.53 in 10.0 mi NE 4.6 mph - N/A   Clear
11:53 PM -5.1 °F - -9.0 °F 83% 30.54 in 10.0 mi Calm Calm - N/A   Clear